Regional Weather Roundup
Issued by NWS

Home | Current Version | Previous Version | Graphics & Text | Print | Product List | Glossary On
Versions: 1 2 3 4 5 6 7 8 9 10 11 12 13 14 15 16 17 18 19 20 21 22 23 24 25 26 27 28 29 30 31 32 33 34 35 36 37 38 39 40 41 42 43 44 45 46 47 48 49 50
000
ASUS43 KOAX 010802
RWRNE

WEATHER ROUNDUP FOR NEBRASKA
NATIONAL WEATHER SERVICE OMAHA NE
300 AM CDT WED OCT 01 2014

NOTES: SATELLITE DATA IS BEING USED TO AUGMENT CLOUD COVER ABOVE
       12000 FEET.
       "FAIR" INDICATES FEW OR NO CLOUDS BELOW 12,000 FEET WITH NO
       SIGNIFICANT WEATHER AND/OR OBSTRUCTIONS TO VISIBILITY.

  * THESE STATIONS DO NOT REPORT WEATHER SUCH AS RAIN...SNOW OR FOG.

NEZ001>004-019>022-054>056-010900-
NEBRASKA PANHANDLE

CITY           SKY/WX    TMP DP  RH WIND       PRES   REMARKS
SCOTTSBLUFF    PTCLDY    50  45  83 NW3       29.81R
ALLIANCE       MOCLDY    51  46  83 CALM      29.79R
CHADRON        MOCLDY    49  46  90 W5        29.78R
KIMBALL        PTCLDY    46  41  82 W8        29.84R
SIDNEY         MOCLDY    51  43  74 W8        29.84R
$$

NEZ057>060-069>072-079>082-010900-
SOUTHWEST NEBRASKA

CITY           SKY/WX    TMP DP  RH WIND       PRES   REMARKS
NORTH PLATTE   MOCLDY    55  49  80 CALM      29.76F
IMPERIAL       PTCLDY    53  45  74 NW5       29.78R
LEXINGTON      FOG       59  58  97 SW5       29.74R VSB 1/4
MCCOOK         CLEAR     58  57  97 SW3       29.75R FOG
OGALLALA       CLOUDY    58  48  69 CALM      29.78R
$$

NEZ005>010-023>029-035>040-094-010900-
NORTH CENTRAL NEBRASKA

CITY           SKY/WX    TMP DP  RH WIND       PRES   REMARKS
VALENTINE      CLOUDY    51  47  86 W9        29.72R
AINSWORTH      CLOUDY    58  47  67 SW5       29.71S
BROKEN BOW     CLOUDY    57  55  93 NW5       29.75R
O`NEILL        CLOUDY    63  61  94 S8        29.72F
ORD            CLOUDY    61  58  90 S6        29.71S
THEDFORD       CLOUDY    61  47  58 W7        29.74S
$$

NEZ041-046>049-061>064-073>077-083>087-010900-
SOUTH CENTRAL NEBRASKA

CITY           SKY/WX    TMP DP  RH WIND       PRES   REMARKS
GRAND ISLAND   CLEAR     59  58  96 CALM      29.72S FOG
AURORA         CLOUDY    61  61 100 CALM      29.71F FOG
HASTINGS       CLOUDY    63  58  83 SE8       29.72S
HEBRON         CLOUDY    64  62  93 E5        29.70F FOG
HOLDREGE       FOG       62  61  96 CALM      29.72F VSB 3/4
KEARNEY *      CLOUDY    63  61  94 SE8       29.73S
YORK           MOCLDY    61  61 100 CALM      29.70F
$$

NEZ011>018-030>034-042>045-010900-
NORTHEAST NEBRASKA

CITY           SKY/WX    TMP DP  RH WIND       PRES   REMARKS
NORFOLK        CLOUDY    63  61  93 S6        29.73F
ALBION         CLOUDY    62  60  94 SE7       29.73S FOG
BLAIR          LGT RAIN  64  62  93 SE13G20   29.72F
COLUMBUS *     MOCLDY    61  57  88 SE6       29.74F
FREMONT        CLOUDY    64  61  92 E3        29.73R
TEKAMAH        LGT RAIN  64  62  93 SE12G26   29.70F
WAYNE          CLOUDY    64  62  94 SE10      29.73F
$$

NEZ050>053-065>068-078-088>093-010900-
SOUTHEAST NEBRASKA

CITY           SKY/WX    TMP DP  RH WIND       PRES   REMARKS
LINCOLN        CLOUDY    62  60  93 E6        29.72F THUNDER
OMAHA EPPLEY   TSTM      64  62  93 E12       29.74F
BEATRICE       CLOUDY    64  63  96 E9        29.71F
FALLS CITY     RAIN      66  64  93 S8        29.73S FOG
NEBRASKA CITY  CLOUDY    63  62  98 N18       29.75S
PLATTSMOUTH    RAIN      61  59  94 CALM      29.76F
$$

NEZ044-045-051>053-067-010900-
OMAHA AREA

CITY           SKY/WX    TMP DP  RH WIND       PRES   REMARKS
OMAHA EPPLEY   TSTM      64  62  93 E12       29.74F
BLAIR          LGT RAIN  64  62  93 SE13G20   29.72F
FREMONT        CLOUDY    64  61  92 E3        29.73R
MILLARD        LGT RAIN  63  61  94 E7        29.72F
OFFUTT AFB     LGT RAIN  62  62 100 E8        29.74F
PLATTSMOUTH    RAIN      61  59  94 CALM      29.76F
WAHOO          LGT RAIN  62  59  91 SE8       29.71F
$$



USA.gov is the U.S. government's official web portal to all federal, state and local government web resources and services.